Data supplied by UK-AIR on 3/5/2023
All Data GMT hour ending 
Status: R =Ratified P=Provisional,P*=As supplied
,,Sunderland Wessington Way,,,,,,,,,,,,,,,,,,,,,,,
Date,time,"Nitric oxide",status,unit,"Nitrogen dioxide",status,unit,"Nitrogen oxides as nitrogen dioxide",status,unit
 
01-01-2022,01:00,3.71575,R,ugm-3,17.79656,R,ugm-3,23.49396,R,ugm-3
01-01-2022,02:00,3.81102,R,ugm-3,15.04004,R,ugm-3,20.88352,R,ugm-3
01-01-2022,03:00,0.64311,R,ugm-3,3.03834,R,ugm-3,4.02443,R,ugm-3
01-01-2022,04:00,0.78602,R,ugm-3,3.09113,R,ugm-3,4.29635,R,ugm-3
01-01-2022,05:00,0.39301,R,ugm-3,4.94458,R,ugm-3,5.54719,R,ugm-3
01-01-2022,06:00,0.67884,R,ugm-3,4.88700,R,ugm-3,5.92787,R,ugm-3
01-01-2022,07:00,0.50020,R,ugm-3,3.47501,R,ugm-3,4.24197,R,ugm-3
01-01-2022,08:00,0.82175,R,ugm-3,5.04856,R,ugm-3,6.30856,R,ugm-3
01-01-2022,09:00,1.17903,R,ugm-3,5.86034,R,ugm-3,7.66817,R,ugm-3
01-01-2022,10:00,1.50059,R,ugm-3,5.25853,R,ugm-3,7.55940,R,ugm-3
01-01-2022,11:00,1.64350,R,ugm-3,4.44117,R,ugm-3,6.96117,R,ugm-3
01-01-2022,12:00,2.10797,R,ugm-3,4.92545,R,ugm-3,8.15763,R,ugm-3
01-01-2022,13:00,2.35807,R,ugm-3,5.03143,R,ugm-3,8.64708,R,ugm-3
01-01-2022,14:00,2.46525,R,ugm-3,4.21447,R,ugm-3,7.99447,R,ugm-3
01-01-2022,15:00,2.67962,R,ugm-3,4.42962,R,ugm-3,8.53831,R,ugm-3
01-01-2022,16:00,2.85827,R,ugm-3,4.80831,R,ugm-3,9.19092,R,ugm-3
01-01-2022,17:00,2.17943,R,ugm-3,4.65273,R,ugm-3,7.99447,R,ugm-3
01-01-2022,18:00,1.35768,R,ugm-3,4.66190,R,ugm-3,6.74364,R,ugm-3
01-01-2022,19:00,1.28622,R,ugm-3,4.88023,R,ugm-3,6.85241,R,ugm-3
01-01-2022,20:00,1.28622,R,ugm-3,3.41186,R,ugm-3,5.38403,R,ugm-3
01-01-2022,21:00,1.25049,R,ugm-3,2.92280,R,ugm-3,4.84019,R,ugm-3
01-01-2022,22:00,0.85748,R,ugm-3,1.94827,R,ugm-3,3.26305,R,ugm-3
01-01-2022,23:00,0.82175,R,ugm-3,1.35044,R,ugm-3,2.61044,R,ugm-3
01-01-2022,24:00,0.64311,R,ugm-3,1.29805,R,ugm-3,2.28414,R,ugm-3
02-01-2022,01:00,0.52468,R,ugm-3,1.29786,R,ugm-3,2.10236,R,ugm-3
02-01-2022,02:00,0.85858,R,ugm-3,1.14838,R,ugm-3,2.46484,R,ugm-3
02-01-2022,03:00,0.42929,R,ugm-3,0.86417,R,ugm-3,1.52240,R,ugm-3
02-01-2022,04:00,0.71548,R,ugm-3,0.80595,R,ugm-3,1.90300,R,ugm-3
02-01-2022,05:00,0.39351,R,ugm-3,0.59279,R,ugm-3,1.19617,R,ugm-3
02-01-2022,06:00,0.50084,R,ugm-3,1.18944,R,ugm-3,1.95737,R,ugm-3
02-01-2022,07:00,0.46506,R,ugm-3,3.25603,R,ugm-3,3.96912,R,ugm-3
02-01-2022,08:00,1.03744,R,ugm-3,4.39013,R,ugm-3,5.98086,R,ugm-3
02-01-2022,09:00,1.60983,R,ugm-3,4.76303,R,ugm-3,7.23140,R,ugm-3
02-01-2022,10:00,1.35941,R,ugm-3,3.62460,R,ugm-3,5.70900,R,ugm-3
02-01-2022,11:00,2.14644,R,ugm-3,4.42959,R,ugm-3,7.72074,R,ugm-3
02-01-2022,12:00,3.25543,R,ugm-3,5.82833,R,ugm-3,10.81992,R,ugm-3
02-01-2022,13:00,4.86526,R,ugm-3,11.08070,R,ugm-3,18.54066,R,ugm-3
02-01-2022,14:00,4.32865,R,ugm-3,8.31498,R,ugm-3,14.95215,R,ugm-3
02-01-2022,15:00,5.47341,R,ugm-3,8.24521,R,ugm-3,16.63766,R,ugm-3
02-01-2022,16:00,3.29120,R,ugm-3,7.56773,R,ugm-3,12.61417,R,ugm-3
02-01-2022,17:00,2.53995,R,ugm-3,6.05544,R,ugm-3,9.94997,R,ugm-3
02-01-2022,18:00,2.18221,R,ugm-3,5.73402,R,ugm-3,9.08003,R,ugm-3
02-01-2022,19:00,2.11066,R,ugm-3,4.97378,R,ugm-3,8.21009,R,ugm-3
02-01-2022,20:00,1.21632,R,ugm-3,3.30030,R,ugm-3,5.16529,R,ugm-3
02-01-2022,21:00,0.78703,R,ugm-3,3.63230,R,ugm-3,4.83906,R,ugm-3
02-01-2022,22:00,1.50251,R,ugm-3,3.07896,R,ugm-3,5.38277,R,ugm-3
02-01-2022,23:00,0.96590,R,ugm-3,1.50941,R,ugm-3,2.99043,R,ugm-3
02-01-2022,24:00,0.64393,R,ugm-3,1.29625,R,ugm-3,2.28360,R,ugm-3
03-01-2022,01:00,0.62087,R,ugm-3,1.40355,R,ugm-3,2.35554,R,ugm-3
03-01-2022,02:00,0.66863,R,ugm-3,1.11289,R,ugm-3,2.13811,R,ugm-3
03-01-2022,03:00,0.39402,R,ugm-3,0.48303,R,ugm-3,1.08717,R,ugm-3
03-01-2022,04:00,0.25074,R,ugm-3,0.48528,R,ugm-3,0.86974,R,ugm-3
03-01-2022,05:00,0.39402,R,ugm-3,0.75482,R,ugm-3,1.35897,R,ugm-3
03-01-2022,06:00,0.28656,R,ugm-3,1.13702,R,ugm-3,1.57640,R,ugm-3
03-01-2022,07:00,0.93131,R,ugm-3,1.77918,R,ugm-3,3.20716,R,ugm-3
03-01-2022,08:00,1.43278,R,ugm-3,3.29333,R,ugm-3,5.49023,R,ugm-3
03-01-2022,09:00,1.32532,R,ugm-3,3.29502,R,ugm-3,5.32715,R,ugm-3
03-01-2022,10:00,2.39991,R,ugm-3,4.69143,R,ugm-3,8.37124,R,ugm-3
03-01-2022,11:00,2.11335,R,ugm-3,4.80466,R,ugm-3,8.04509,R,ugm-3
03-01-2022,12:00,2.68647,R,ugm-3,4.95871,R,ugm-3,9.07790,R,ugm-3
03-01-2022,13:00,4.01179,R,ugm-3,7.76450,R,ugm-3,13.91583,R,ugm-3
03-01-2022,14:00,4.44163,R,ugm-3,9.06234,R,ugm-3,15.87274,R,ugm-3
03-01-2022,15:00,4.08343,R,ugm-3,10.15516,R,ugm-3,16.41633,R,ugm-3
03-01-2022,16:00,1.61188,R,ugm-3,5.62793,R,ugm-3,8.09945,R,ugm-3
03-01-2022,17:00,1.46860,R,ugm-3,7.04351,R,ugm-3,9.29534,R,ugm-3
03-01-2022,18:00,1.25369,R,ugm-3,6.88382,R,ugm-3,8.80611,R,ugm-3
03-01-2022,19:00,1.52830,R,ugm-3,5.73797,R,ugm-3,8.08133,R,ugm-3
03-01-2022,20:00,2.57901,R,ugm-3,6.80860,R,ugm-3,10.76302,R,ugm-3
03-01-2022,21:00,1.21787,R,ugm-3,7.75412,R,ugm-3,9.62149,R,ugm-3
03-01-2022,22:00,1.43278,R,ugm-3,16.28506,R,ugm-3,18.48196,R,ugm-3
03-01-2022,23:00,1.36114,R,ugm-3,14.98158,R,ugm-3,17.06863,R,ugm-3
03-01-2022,24:00,0.82385,R,ugm-3,9.88032,R,ugm-3,11.14354,R,ugm-3
04-01-2022,01:00,0.52602,R,ugm-3,7.23665,R,ugm-3,8.04320,R,ugm-3
04-01-2022,02:00,0.47820,R,ugm-3,5.78828,R,ugm-3,6.52152,R,ugm-3
04-01-2022,03:00,0.50211,R,ugm-3,7.32766,R,ugm-3,8.09755,R,ugm-3
04-01-2022,04:00,0.35865,R,ugm-3,7.65632,R,ugm-3,8.20624,R,ugm-3
04-01-2022,05:00,0.68144,R,ugm-3,4.22670,R,ugm-3,5.27156,R,ugm-3
04-01-2022,06:00,0.93250,R,ugm-3,6.12428,R,ugm-3,7.55409,R,ugm-3
04-01-2022,07:00,1.64980,R,ugm-3,10.29599,R,ugm-3,12.82565,R,ugm-3
04-01-2022,08:00,5.52324,R,ugm-3,19.30194,R,ugm-3,27.77079,R,ugm-3
04-01-2022,09:00,6.59920,R,ugm-3,25.47799,R,ugm-3,35.59662,R,ugm-3
04-01-2022,10:00,6.31228,R,ugm-3,21.73329,R,ugm-3,31.41197,R,ugm-3
04-01-2022,11:00,5.05699,R,ugm-3,14.63659,R,ugm-3,22.39054,R,ugm-3
04-01-2022,12:00,5.30805,R,ugm-3,13.43646,R,ugm-3,21.57535,R,ugm-3
04-01-2022,13:00,5.66670,R,ugm-3,13.81041,R,ugm-3,22.49923,R,ugm-3
04-01-2022,14:00,5.81016,R,ugm-3,12.34049,R,ugm-3,21.24928,R,ugm-3
04-01-2022,15:00,5.34392,R,ugm-3,15.06619,R,ugm-3,23.26008,R,ugm-3
04-01-2022,16:00,6.38400,R,ugm-3,17.71039,R,ugm-3,27.49906,R,ugm-3
04-01-2022,17:00,9.68360,R,ugm-3,20.74863,R,ugm-3,35.59662,R,ugm-3
04-01-2022,18:00,4.62661,R,ugm-3,16.16604,R,ugm-3,23.26008,R,ugm-3
04-01-2022,19:00,3.04854,R,ugm-3,11.30335,R,ugm-3,15.97772,R,ugm-3
04-01-2022,20:00,2.08018,R,ugm-3,7.84267,R,ugm-3,11.03223,R,ugm-3
04-01-2022,21:00,1.50634,R,ugm-3,5.13571,R,ugm-3,7.44540,R,ugm-3
04-01-2022,22:00,1.25528,R,ugm-3,3.94463,R,ugm-3,5.86937,R,ugm-3
04-01-2022,23:00,0.82490,R,ugm-3,2.26766,R,ugm-3,3.53249,R,ugm-3
04-01-2022,24:00,0.75317,R,ugm-3,1.67115,R,ugm-3,2.82599,R,ugm-3
05-01-2022,01:00,0.47881,R,ugm-3,1.07694,R,ugm-3,1.81111,R,ugm-3
05-01-2022,02:00,0.67034,R,ugm-3,1.65261,R,ugm-3,2.68044,R,ugm-3
05-01-2022,03:00,0.50275,R,ugm-3,2.43479,R,ugm-3,3.20566,R,ugm-3
05-01-2022,04:00,0.53866,R,ugm-3,2.05373,R,ugm-3,2.87966,R,ugm-3
05-01-2022,05:00,0.75413,R,ugm-3,2.70135,R,ugm-3,3.85766,R,ugm-3
05-01-2022,06:00,1.14915,R,ugm-3,4.10599,R,ugm-3,5.86799,R,ugm-3
05-01-2022,07:00,2.33420,R,ugm-3,10.54758,R,ugm-3,14.12664,R,ugm-3
05-01-2022,08:00,5.56618,R,ugm-3,20.91393,R,ugm-3,29.44862,R,ugm-3
05-01-2022,09:00,5.96120,R,ugm-3,26.33924,R,ugm-3,35.47961,R,ugm-3
05-01-2022,10:00,8.33131,R,ugm-3,29.55110,R,ugm-3,42.32560,R,ugm-3
05-01-2022,11:00,7.18216,R,ugm-3,25.77111,R,ugm-3,36.78361,R,ugm-3
05-01-2022,12:00,7.72083,R,ugm-3,22.60884,R,ugm-3,34.44728,R,ugm-3
05-01-2022,13:00,6.35622,R,ugm-3,20.19156,R,ugm-3,29.93762,R,ugm-3
05-01-2022,14:00,4.09383,R,ugm-3,13.66318,R,ugm-3,19.94030,R,ugm-3
05-01-2022,15:00,3.73473,R,ugm-3,15.40913,R,ugm-3,21.13563,R,ugm-3
05-01-2022,16:00,7.39763,R,ugm-3,34.67739,R,ugm-3,46.02026,R,ugm-3
05-01-2022,17:00,12.53288,R,ugm-3,51.30774,R,ugm-3,70.52455,R,ugm-3
05-01-2022,18:00,8.25949,R,ugm-3,39.87587,R,ugm-3,52.54025,R,ugm-3
05-01-2022,19:00,3.91428,R,ugm-3,29.80380,R,ugm-3,35.80561,R,ugm-3
05-01-2022,20:00,5.06343,R,ugm-3,33.80112,R,ugm-3,41.56493,R,ugm-3
05-01-2022,21:00,3.55517,R,ugm-3,32.03875,R,ugm-3,37.48994,R,ugm-3
05-01-2022,22:00,3.51926,R,ugm-3,32.41982,R,ugm-3,37.81594,R,ugm-3
05-01-2022,23:00,2.44194,R,ugm-3,32.98502,R,ugm-3,36.72927,R,ugm-3
05-01-2022,24:00,2.51376,R,ugm-3,29.45191,R,ugm-3,33.30628,R,ugm-3
06-01-2022,01:00,1.77385,R,ugm-3,22.41242,R,ugm-3,25.13229,R,ugm-3
06-01-2022,02:00,3.16417,R,ugm-3,24.98841,R,ugm-3,29.84007,R,ugm-3
06-01-2022,03:00,0.86295,R,ugm-3,17.41740,R,ugm-3,18.74058,R,ugm-3
06-01-2022,04:00,0.75509,R,ugm-3,13.78036,R,ugm-3,14.93814,R,ugm-3
06-01-2022,05:00,0.64722,R,ugm-3,12.20750,R,ugm-3,13.19989,R,ugm-3
06-01-2022,06:00,2.08547,R,ugm-3,14.29352,R,ugm-3,17.49121,R,ugm-3
06-01-2022,07:00,7.83851,R,ugm-3,34.09924,R,ugm-3,46.11812,R,ugm-3
06-01-2022,08:00,21.35813,R,ugm-3,49.81850,R,ugm-3,82.56718,R,ugm-3
06-01-2022,09:00,29.55620,R,ugm-3,56.36913,R,ugm-3,101.68800,R,ugm-3
06-01-2022,10:00,14.41854,R,ugm-3,34.71114,R,ugm-3,56.81926,R,ugm-3
06-01-2022,11:00,11.29033,R,ugm-3,28.10036,R,ugm-3,45.41195,R,ugm-3
06-01-2022,12:00,6.54407,R,ugm-3,23.31869,R,ugm-3,33.35280,R,ugm-3
06-01-2022,13:00,8.16211,R,ugm-3,27.73644,R,ugm-3,40.25150,R,ugm-3
06-01-2022,14:00,9.06103,R,ugm-3,29.61735,R,ugm-3,43.51073,R,ugm-3
06-01-2022,15:00,5.53729,R,ugm-3,21.60317,R,ugm-3,30.09356,R,ugm-3
06-01-2022,16:00,7.58681,R,ugm-3,22.37169,R,ugm-3,34.00464,R,ugm-3
06-01-2022,17:00,8.29395,R,ugm-3,23.13432,R,ugm-3,35.85154,R,ugm-3
06-01-2022,18:00,6.75981,R,ugm-3,22.33605,R,ugm-3,32.70095,R,ugm-3
06-01-2022,19:00,3.59565,R,ugm-3,15.07423,R,ugm-3,20.58748,R,ugm-3
06-01-2022,20:00,4.09904,R,ugm-3,16.63816,R,ugm-3,22.92326,R,ugm-3
06-01-2022,21:00,4.38669,R,ugm-3,22.98716,R,ugm-3,29.71332,R,ugm-3
06-01-2022,22:00,4.02712,R,ugm-3,19.02988,R,ugm-3,25.20472,R,ugm-3
06-01-2022,23:00,1.79782,R,ugm-3,6.15194,R,ugm-3,8.90857,R,ugm-3
06-01-2022,24:00,1.61804,R,ugm-3,5.44984,R,ugm-3,7.93080,R,ugm-3
07-01-2022,01:00,0.96006,R,ugm-3,5.11728,R,ugm-3,6.58935,R,ugm-3
07-01-2022,02:00,0.76805,R,ugm-3,2.15323,R,ugm-3,3.33088,R,ugm-3
07-01-2022,03:00,0.50403,R,ugm-3,1.72532,R,ugm-3,2.49816,R,ugm-3
07-01-2022,04:00,0.57603,R,ugm-3,1.77784,R,ugm-3,2.66108,R,ugm-3
07-01-2022,05:00,0.64804,R,ugm-3,1.45021,R,ugm-3,2.44385,R,ugm-3
07-01-2022,06:00,1.18807,R,ugm-3,3.77202,R,ugm-3,5.59370,R,ugm-3
07-01-2022,07:00,2.12412,R,ugm-3,6.08400,R,ugm-3,9.34094,R,ugm-3
07-01-2022,08:00,10.29659,R,ugm-3,28.96172,R,ugm-3,44.74961,R,ugm-3
07-01-2022,09:00,15.73291,R,ugm-3,46.20513,R,ugm-3,70.32858,R,ugm-3
07-01-2022,10:00,13.39277,R,ugm-3,42.40742,R,ugm-3,62.94272,R,ugm-3
07-01-2022,11:00,9.36054,R,ugm-3,30.07114,R,ugm-3,44.42377,R,ugm-3
07-01-2022,12:00,5.83234,R,ugm-3,14.73540,R,ugm-3,23.67819,R,ugm-3
07-01-2022,13:00,5.76033,R,ugm-3,14.79150,R,ugm-3,23.62389,R,ugm-3
07-01-2022,14:00,4.35625,R,ugm-3,13.19716,R,ugm-3,19.87665,R,ugm-3
07-01-2022,15:00,5.97634,R,ugm-3,16.57829,R,ugm-3,25.74189,R,ugm-3
07-01-2022,16:00,7.09241,R,ugm-3,24.80534,R,ugm-3,35.68021,R,ugm-3
07-01-2022,17:00,9.18053,R,ugm-3,27.57745,R,ugm-3,41.65407,R,ugm-3
07-01-2022,18:00,4.96829,R,ugm-3,23.71766,R,ugm-3,31.33559,R,ugm-3
07-01-2022,19:00,6.08435,R,ugm-3,32.43348,R,ugm-3,41.76269,R,ugm-3
07-01-2022,20:00,3.60021,R,ugm-3,26.24981,R,ugm-3,31.77005,R,ugm-3
07-01-2022,21:00,2.12412,R,ugm-3,20.14971,R,ugm-3,23.40666,R,ugm-3
07-01-2022,22:00,1.90811,R,ugm-3,12.06322,R,ugm-3,14.98895,R,ugm-3
07-01-2022,23:00,1.62009,R,ugm-3,14.07977,R,ugm-3,16.56387,R,ugm-3
07-01-2022,24:00,1.98011,R,ugm-3,12.55020,R,ugm-3,15.58633,R,ugm-3
08-01-2022,01:00,1.73029,R,ugm-3,10.52253,R,ugm-3,13.17560,R,ugm-3
08-01-2022,02:00,0.91321,R,ugm-3,5.33235,R,ugm-3,6.73259,R,ugm-3
08-01-2022,03:00,0.46862,R,ugm-3,4.38519,R,ugm-3,5.10374,R,ugm-3
08-01-2022,04:00,0.75700,R,ugm-3,4.43167,R,ugm-3,5.59239,R,ugm-3
08-01-2022,05:00,0.75700,R,ugm-3,3.07429,R,ugm-3,4.23502,R,ugm-3
08-01-2022,06:00,1.36981,R,ugm-3,5.82673,R,ugm-3,7.92708,R,ugm-3
08-01-2022,07:00,1.55005,R,ugm-3,9.29672,R,ugm-3,11.67344,R,ugm-3
08-01-2022,08:00,2.41520,R,ugm-3,8.83891,R,ugm-3,12.54216,R,ugm-3
08-01-2022,09:00,2.63148,R,ugm-3,10.57049,R,ugm-3,14.60537,R,ugm-3
08-01-2022,10:00,4.10944,R,ugm-3,12.10497,R,ugm-3,18.40602,R,ugm-3
08-01-2022,11:00,5.73158,R,ugm-3,14.28709,R,ugm-3,23.07540,R,ugm-3
08-01-2022,12:00,7.96654,R,ugm-3,21.33915,R,ugm-3,33.55434,R,ugm-3
08-01-2022,13:00,13.58998,R,ugm-3,32.42576,R,ugm-3,53.26345,R,ugm-3
08-01-2022,14:00,9.04797,R,ugm-3,30.43140,R,ugm-3,44.30476,R,ugm-3
08-01-2022,15:00,6.38044,R,ugm-3,25.12851,R,ugm-3,34.91172,R,ugm-3
08-01-2022,16:00,5.08273,R,ugm-3,23.64343,R,ugm-3,31.43684,R,ugm-3
08-01-2022,17:00,4.18153,R,ugm-3,21.93042,R,ugm-3,28.34202,R,ugm-3
08-01-2022,18:00,3.89315,R,ugm-3,23.18703,R,ugm-3,29.15644,R,ugm-3
08-01-2022,19:00,2.34310,R,ugm-3,12.96729,R,ugm-3,16.55999,R,ugm-3
08-01-2022,20:00,1.98262,R,ugm-3,9.66506,R,ugm-3,12.70504,R,ugm-3
08-01-2022,21:00,1.44191,R,ugm-3,11.47146,R,ugm-3,13.68235,R,ugm-3
08-01-2022,22:00,1.18957,R,ugm-3,9.74086,R,ugm-3,11.56485,R,ugm-3
08-01-2022,23:00,1.15353,R,ugm-3,5.18105,R,ugm-3,6.94977,R,ugm-3
08-01-2022,24:00,1.22562,R,ugm-3,4.69044,R,ugm-3,6.56970,R,ugm-3
09-01-2022,01:00,1.34748,R,ugm-3,5.53341,R,ugm-3,7.59953,R,ugm-3
09-01-2022,02:00,0.57749,R,ugm-3,1.72007,R,ugm-3,2.60555,R,ugm-3
09-01-2022,03:00,0.64968,R,ugm-3,1.77224,R,ugm-3,2.76840,R,ugm-3
09-01-2022,04:00,0.50531,R,ugm-3,1.28794,R,ugm-3,2.06273,R,ugm-3
09-01-2022,05:00,0.64968,R,ugm-3,2.64075,R,ugm-3,3.63692,R,ugm-3
09-01-2022,06:00,0.64968,R,ugm-3,2.64075,R,ugm-3,3.63692,R,ugm-3
09-01-2022,07:00,0.75796,R,ugm-3,6.11164,R,ugm-3,7.27383,R,ugm-3
09-01-2022,08:00,1.33545,R,ugm-3,10.11158,R,ugm-3,12.15924,R,ugm-3
09-01-2022,09:00,2.38216,R,ugm-3,16.43187,R,ugm-3,20.08446,R,ugm-3
09-01-2022,10:00,5.12525,R,ugm-3,26.33925,R,ugm-3,34.19786,R,ugm-3
09-01-2022,11:00,9.02333,R,ugm-3,26.65903,R,ugm-3,40.49461,R,ugm-3
09-01-2022,12:00,6.96601,R,ugm-3,19.28277,R,ugm-3,29.96384,R,ugm-3
09-01-2022,13:00,7.68788,R,ugm-3,17.57882,R,ugm-3,29.36674,R,ugm-3
09-01-2022,14:00,8.22928,R,ugm-3,21.85122,R,ugm-3,34.46927,R,ugm-3
09-01-2022,15:00,8.22928,R,ugm-3,22.77402,R,ugm-3,35.39208,R,ugm-3
09-01-2022,16:00,9.96176,R,ugm-3,34.99095,R,ugm-3,50.26543,R,ugm-3
09-01-2022,17:00,5.01697,R,ugm-3,21.34846,R,ugm-3,29.04104,R,ugm-3
09-01-2022,18:00,2.63481,R,ugm-3,19.89851,R,ugm-3,23.93850,R,ugm-3
09-01-2022,19:00,5.81103,R,ugm-3,37.60984,R,ugm-3,46.51995,R,ugm-3
09-01-2022,20:00,4.36729,R,ugm-3,27.33860,R,ugm-3,34.03502,R,ugm-3
09-01-2022,21:00,4.51167,R,ugm-3,40.36211,R,ugm-3,47.27990,R,ugm-3
09-01-2022,22:00,3.10403,R,ugm-3,26.18148,R,ugm-3,30.94092,R,ugm-3
09-01-2022,23:00,1.51592,R,ugm-3,24.54537,R,ugm-3,26.86975,R,ugm-3
09-01-2022,24:00,9.81739,R,ugm-3,28.10133,R,ugm-3,43.15445,R,ugm-3
10-01-2022,01:00,5.83042,R,ugm-3,43.15896,R,ugm-3,52.09881,R,ugm-3
10-01-2022,02:00,5.97497,R,ugm-3,43.22675,R,ugm-3,52.38825,R,ugm-3
10-01-2022,03:00,2.38517,R,ugm-3,31.12960,R,ugm-3,34.78681,R,ugm-3
10-01-2022,04:00,5.20401,R,ugm-3,26.97025,R,ugm-3,34.94962,R,ugm-3
10-01-2022,05:00,9.14316,R,ugm-3,29.61344,R,ugm-3,43.63275,R,ugm-3
10-01-2022,06:00,16.58778,R,ugm-3,40.72039,R,ugm-3,66.15463,R,ugm-3
10-01-2022,07:00,27.71858,R,ugm-3,41.39956,R,ugm-3,83.90079,R,ugm-3
10-01-2022,08:00,45.96875,R,ugm-3,57.70034,R,ugm-3,128.18478,R,ugm-3
10-01-2022,09:00,36.17510,R,ugm-3,57.03316,R,ugm-3,112.50087,R,ugm-3
10-01-2022,10:00,47.48659,R,ugm-3,58.62920,R,ugm-3,131.44095,R,ugm-3
10-01-2022,11:00,12.07041,R,ugm-3,27.56718,R,ugm-3,46.07489,R,ugm-3
10-01-2022,12:00,12.46794,R,ugm-3,24.62405,R,ugm-3,43.74129,R,ugm-3
10-01-2022,13:00,13.19072,R,ugm-3,27.58602,R,ugm-3,47.81151,R,ugm-3
10-01-2022,14:00,16.87689,R,ugm-3,33.81901,R,ugm-3,59.69655,R,ugm-3
10-01-2022,15:00,18.25017,R,ugm-3,40.55929,R,ugm-3,68.54250,R,ugm-3
10-01-2022,16:00,21.06901,R,ugm-3,44.54038,R,ugm-3,76.84574,R,ugm-3
10-01-2022,17:00,8.81791,R,ugm-3,36.62450,R,ugm-3,50.14510,R,ugm-3
10-01-2022,18:00,7.44463,R,ugm-3,30.26412,R,ugm-3,41.67905,R,ugm-3
10-01-2022,19:00,8.09513,R,ugm-3,33.01130,R,ugm-3,45.42365,R,ugm-3
10-01-2022,20:00,5.96293,R,ugm-3,30.69085,R,ugm-3,39.83388,R,ugm-3
10-01-2022,21:00,3.68617,R,ugm-3,24.84746,R,ugm-3,30.49951,R,ugm-3
10-01-2022,22:00,1.98764,R,ugm-3,20.45106,R,ugm-3,23.49873,R,ugm-3
10-01-2022,23:00,2.24062,R,ugm-3,23.42789,R,ugm-3,26.86345,R,ugm-3
10-01-2022,24:00,0.97575,R,ugm-3,19.01777,R,ugm-3,20.51391,R,ugm-3
11-01-2022,01:00,0.86843,R,ugm-3,19.21369,R,ugm-3,20.54527,R,ugm-3
11-01-2022,02:00,0.67545,R,ugm-3,14.59031,R,ugm-3,15.62598,R,ugm-3
11-01-2022,03:00,0.65132,R,ugm-3,7.68242,R,ugm-3,8.68110,R,ugm-3
11-01-2022,04:00,0.86843,R,ugm-3,8.05486,R,ugm-3,9.38644,R,ugm-3
11-01-2022,05:00,0.97698,R,ugm-3,10.98106,R,ugm-3,12.47908,R,ugm-3
11-01-2022,06:00,1.84541,R,ugm-3,17.95078,R,ugm-3,20.78038,R,ugm-3
11-01-2022,07:00,2.09871,R,ugm-3,19.35288,R,ugm-3,22.57086,R,ugm-3
11-01-2022,08:00,26.88515,R,ugm-3,54.59430,R,ugm-3,95.81762,R,ugm-3
11-01-2022,09:00,32.96416,R,ugm-3,63.72062,R,ugm-3,114.26495,R,ugm-3
11-01-2022,10:00,62.23748,R,ugm-3,69.83693,R,ugm-3,165.26640,R,ugm-3
11-01-2022,11:00,29.63517,R,ugm-3,48.26164,R,ugm-3,93.70160,R,ugm-3
11-01-2022,12:00,15.74029,R,ugm-3,38.64041,R,ugm-3,62.77519,R,ugm-3
11-01-2022,13:00,12.44750,R,ugm-3,34.89968,R,ugm-3,53.98558,R,ugm-3
11-01-2022,14:00,10.16787,R,ugm-3,31.45019,R,ugm-3,47.04070,R,ugm-3
11-01-2022,15:00,6.65796,R,ugm-3,24.89545,R,ugm-3,35.10419,R,ugm-3
11-01-2022,16:00,16.78965,R,ugm-3,36.54311,R,ugm-3,62.28688,R,ugm-3
11-01-2022,17:00,14.40146,R,ugm-3,51.49037,R,ugm-3,73.57231,R,ugm-3
11-01-2022,18:00,25.98053,R,ugm-3,65.31354,R,ugm-3,105.14980,R,ugm-3
11-01-2022,19:00,63.93816,R,ugm-3,81.66159,R,ugm-3,179.69873,R,ugm-3
11-01-2022,20:00,17.54952,R,ugm-3,55.50728,R,ugm-3,82.41617,R,ugm-3
11-01-2022,21:00,4.59544,R,ugm-3,33.91769,R,ugm-3,40.96393,R,ugm-3
11-01-2022,22:00,6.18756,R,ugm-3,19.43144,R,ugm-3,28.91891,R,ugm-3
11-01-2022,23:00,7.77969,R,ugm-3,19.70307,R,ugm-3,31.63175,R,ugm-3
11-01-2022,24:00,1.59212,R,ugm-3,9.38678,R,ugm-3,11.82800,R,ugm-3
12-01-2022,01:00,0.67630,R,ugm-3,6.70186,R,ugm-3,7.73883,R,ugm-3
12-01-2022,02:00,0.72460,R,ugm-3,8.72523,R,ugm-3,9.83627,R,ugm-3
12-01-2022,03:00,0.79707,R,ugm-3,5.50412,R,ugm-3,6.72627,R,ugm-3
12-01-2022,04:00,0.57968,R,ugm-3,4.75256,R,ugm-3,5.64139,R,ugm-3
12-01-2022,05:00,0.83330,R,ugm-3,6.64194,R,ugm-3,7.91964,R,ugm-3
12-01-2022,06:00,2.21004,R,ugm-3,15.59676,R,ugm-3,18.98545,R,ugm-3
12-01-2022,07:00,5.54322,R,ugm-3,28.33228,R,ugm-3,36.83177,R,ugm-3
12-01-2022,08:00,12.24581,R,ugm-3,43.82108,R,ugm-3,62.59773,R,ugm-3
12-01-2022,09:00,10.61545,R,ugm-3,37.42489,R,ugm-3,53.70169,R,ugm-3
12-01-2022,10:00,8.84017,R,ugm-3,31.35940,R,ugm-3,44.91414,R,ugm-3
12-01-2022,11:00,5.86929,R,ugm-3,18.55656,R,ugm-3,27.55602,R,ugm-3
12-01-2022,12:00,4.67370,R,ugm-3,12.47014,R,ugm-3,19.63638,R,ugm-3
12-01-2022,13:00,4.16648,R,ugm-3,12.05450,R,ugm-3,18.44300,R,ugm-3
12-01-2022,14:00,4.49255,R,ugm-3,13.23610,R,ugm-3,20.12457,R,ugm-3
12-01-2022,15:00,4.31140,R,ugm-3,15.68363,R,ugm-3,22.29434,R,ugm-3
12-01-2022,16:00,8.44164,R,ugm-3,22.20653,R,ugm-3,35.15020,R,ugm-3
12-01-2022,17:00,24.23801,R,ugm-3,58.73919,R,ugm-3,95.90362,R,ugm-3
12-01-2022,18:00,29.23778,R,ugm-3,53.35124,R,ugm-3,98.18188,R,ugm-3
12-01-2022,19:00,5.72437,R,ugm-3,16.71749,R,ugm-3,25.49474,R,ugm-3
12-01-2022,20:00,2.57235,R,ugm-3,11.02717,R,ugm-3,14.97138,R,ugm-3
12-01-2022,21:00,2.53612,R,ugm-3,14.06615,R,ugm-3,17.95481,R,ugm-3
12-01-2022,22:00,2.31873,R,ugm-3,10.90976,R,ugm-3,14.46510,R,ugm-3
12-01-2022,23:00,2.97088,R,ugm-3,17.84755,R,ugm-3,22.40283,R,ugm-3
12-01-2022,24:00,2.10135,R,ugm-3,16.57708,R,ugm-3,19.79911,R,ugm-3
13-01-2022,01:00,0.62878,R,ugm-3,9.95447,R,ugm-3,10.91859,R,ugm-3
13-01-2022,02:00,0.58041,R,ugm-3,10.31787,R,ugm-3,11.20782,R,ugm-3
13-01-2022,03:00,0.47159,R,ugm-3,8.98433,R,ugm-3,9.70742,R,ugm-3
13-01-2022,04:00,0.61669,R,ugm-3,6.64682,R,ugm-3,7.59240,R,ugm-3
13-01-2022,05:00,0.97945,R,ugm-3,8.58524,R,ugm-3,10.08704,R,ugm-3
13-01-2022,06:00,1.55986,R,ugm-3,9.81031,R,ugm-3,12.20207,R,ugm-3
13-01-2022,07:00,4.64331,R,ugm-3,27.85962,R,ugm-3,34.97925,R,ugm-3
13-01-2022,08:00,9.68565,R,ugm-3,38.18719,R,ugm-3,53.03831,R,ugm-3
13-01-2022,09:00,11.31806,R,ugm-3,28.09180,R,ugm-3,45.44591,R,ugm-3
13-01-2022,10:00,5.40510,R,ugm-3,16.55028,R,ugm-3,24.83798,R,ugm-3
13-01-2022,11:00,5.26000,R,ugm-3,13.84427,R,ugm-3,21.90949,R,ugm-3
13-01-2022,12:00,4.20800,R,ugm-3,11.98650,R,ugm-3,18.43868,R,ugm-3
13-01-2022,13:00,4.49820,R,ugm-3,12.24654,R,ugm-3,19.14369,R,ugm-3
13-01-2022,14:00,5.15117,R,ugm-3,12.98074,R,ugm-3,20.87909,R,ugm-3
13-01-2022,15:00,5.22372,R,ugm-3,15.90646,R,ugm-3,23.91605,R,ugm-3
13-01-2022,16:00,7.43655,R,ugm-3,26.72213,R,ugm-3,38.12467,R,ugm-3
13-01-2022,17:00,9.75820,R,ugm-3,28.53122,R,ugm-3,43.49358,R,ugm-3
13-01-2022,18:00,14.69171,R,ugm-3,40.76107,R,ugm-3,63.28805,R,ugm-3
13-01-2022,19:00,6.02179,R,ugm-3,27.15599,R,ugm-3,36.38927,R,ugm-3
13-01-2022,20:00,6.20317,R,ugm-3,32.08409,R,ugm-3,41.59549,R,ugm-3
13-01-2022,21:00,2.39421,R,ugm-3,14.71338,R,ugm-3,18.38445,R,ugm-3
13-01-2022,22:00,1.05200,R,ugm-3,7.55207,R,ugm-3,9.16511,R,ugm-3
13-01-2022,23:00,1.85007,R,ugm-3,7.35877,R,ugm-3,10.19550,R,ugm-3
13-01-2022,24:00,0.97945,R,ugm-3,5.98214,R,ugm-3,7.48393,R,ugm-3
14-01-2022,01:00,0.72643,R,ugm-3,4.38032,R,ugm-3,5.49416,R,ugm-3
14-01-2022,02:00,0.53271,R,ugm-3,2.87005,R,ugm-3,3.68687,R,ugm-3
14-01-2022,03:00,0.50850,R,ugm-3,3.39515,R,ugm-3,4.17484,R,ugm-3
14-01-2022,04:00,0.32689,R,ugm-3,3.45674,R,ugm-3,3.95796,R,ugm-3
14-01-2022,05:00,0.58114,R,ugm-3,3.60908,R,ugm-3,4.50015,R,ugm-3
14-01-2022,06:00,1.08964,R,ugm-3,7.65485,R,ugm-3,9.32561,R,ugm-3
14-01-2022,07:00,1.96136,R,ugm-3,13.52932,R,ugm-3,16.53670,R,ugm-3
14-01-2022,08:00,13.94744,R,ugm-3,48.33943,R,ugm-3,69.72521,R,ugm-3
14-01-2022,09:00,27.05949,R,ugm-3,65.91655,R,ugm-3,107.40719,R,ugm-3
14-01-2022,10:00,24.19010,R,ugm-3,56.81578,R,ugm-3,93.90674,R,ugm-3
14-01-2022,11:00,22.01081,R,ugm-3,45.08451,R,ugm-3,78.83395,R,ugm-3
14-01-2022,12:00,17.94280,R,ugm-3,38.20112,R,ugm-3,65.71303,R,ugm-3
14-01-2022,13:00,15.83616,R,ugm-3,35.14189,R,ugm-3,59.42366,R,ugm-3
14-01-2022,14:00,9.40726,R,ugm-3,31.82426,R,ugm-3,46.24853,R,ugm-3
14-01-2022,15:00,15.90880,R,ugm-3,43.05487,R,ugm-3,67.44803,R,ugm-3
14-01-2022,16:00,20.04945,R,ugm-3,54.86922,R,ugm-3,85.61128,R,ugm-3
14-01-2022,17:00,87.28048,R,ugm-3,79.08852,R,ugm-3,212.91672,R,ugm-3
14-01-2022,18:00,69.08342,R,ugm-3,76.19408,R,ugm-3,182.12051,R,ugm-3
14-01-2022,19:00,82.23179,R,ugm-3,73.97990,R,ugm-3,200.06689,R,ugm-3
14-01-2022,20:00,90.87630,R,ugm-3,67.88204,R,ugm-3,207.22376,R,ugm-3
14-01-2022,21:00,68.90182,R,ugm-3,61.18287,R,ugm-3,166.83085,R,ugm-3
14-01-2022,22:00,13.65687,R,ugm-3,40.59795,R,ugm-3,61.53819,R,ugm-3
14-01-2022,23:00,5.23029,R,ugm-3,34.05402,R,ugm-3,42.07369,R,ugm-3
14-01-2022,24:00,12.02240,R,ugm-3,43.48363,R,ugm-3,61.91772,R,ugm-3
15-01-2022,01:00,4.60650,R,ugm-3,39.26481,R,ugm-3,46.32801,R,ugm-3
15-01-2022,02:00,14.01345,R,ugm-3,38.50091,R,ugm-3,59.98791,R,ugm-3
15-01-2022,03:00,7.89166,R,ugm-3,35.11300,R,ugm-3,47.21337,R,ugm-3
15-01-2022,04:00,1.56379,R,ugm-3,18.47152,R,ugm-3,20.86929,R,ugm-3
15-01-2022,05:00,0.94554,R,ugm-3,9.93343,R,ugm-3,11.38325,R,ugm-3
15-01-2022,06:00,1.81836,R,ugm-3,10.11291,R,ugm-3,12.90101,R,ugm-3
15-01-2022,07:00,3.09120,R,ugm-3,17.86410,R,ugm-3,22.60388,R,ugm-3
15-01-2022,08:00,13.63766,R,ugm-3,30.15121,R,ugm-3,51.06200,R,ugm-3
15-01-2022,09:00,26.03884,R,ugm-3,31.24674,R,ugm-3,71.17240,R,ugm-3
15-01-2022,10:00,28.94820,R,ugm-3,30.20075,R,ugm-3,74.58737,R,ugm-3
15-01-2022,11:00,36.47619,R,ugm-3,32.64313,R,ugm-3,88.57251,R,ugm-3
15-01-2022,12:00,38.40365,R,ugm-3,32.88589,R,ugm-3,91.77066,R,ugm-3
15-01-2022,13:00,38.18545,R,ugm-3,37.06908,R,ugm-3,95.61928,R,ugm-3
15-01-2022,14:00,33.74866,R,ugm-3,35.74116,R,ugm-3,87.48839,R,ugm-3
15-01-2022,15:00,36.94896,R,ugm-3,41.13323,R,ugm-3,97.78752,R,ugm-3
15-01-2022,16:00,46.58624,R,ugm-3,44.35264,R,ugm-3,115.78389,R,ugm-3
15-01-2022,17:00,47.24085,R,ugm-3,46.38446,R,ugm-3,118.81942,R,ugm-3
15-01-2022,18:00,69.86118,R,ugm-3,48.61468,R,ugm-3,155.73366,R,ugm-3
15-01-2022,19:00,72.55235,R,ugm-3,44.54249,R,ugm-3,155.78787,R,ugm-3
15-01-2022,20:00,80.80768,R,ugm-3,44.13504,R,ugm-3,168.03841,R,ugm-3